Regional Weather Roundup
Issued by NWS

Home | Current Version | Previous Version | Graphics & Text | Print | Product List | Glossary On
Versions: 1 2 3 4 5 6 7 8 9 10 11 12 13 14 15 16 17 18 19 20 21 22 23 24 25 26 27 28 29 30 31 32 33 34 35 36 37 38 39 40 41 42 43 44 45 46 47 48 49 50
000
ASUS43 KFSD 282210
RWRSD

WEATHER ROUNDUP FOR SOUTH DAKOTA
NATIONAL WEATHER SERVICE SIOUX FALLS SD
500 PM CDT FRI APR 28 2017

NOTE: "FAIR" INDICATES FEW OR NO CLOUDS BELOW 12,000 FEET WITH NO
SIGNIFICANT WEATHER AND/OR OBSTRUCTIONS TO VISIBILITY.


SDZ001>005-009-010-012>017-282300-
NORTHWEST AND NORTH CENTRAL SOUTH DAKOTA

CITY           SKY/WX    TMP DP  RH WIND       PRES   REMARKS
BUFFALO          N/A     51  22  31 E12G18    29.98R
FAITH            N/A     51  22  31 E10G22    30.03R
MOBRIDGE       CLOUDY    58  11  15 NE12G22   30.01S
$$

SDZ012>016-024>037-041>051-057-063-072>074-282300-
SOUTHWEST AND SOUTH CENTRAL SOUTH DAKOTA

CITY           SKY/WX    TMP DP  RH WIND       PRES   REMARKS
RAPID CTY ARPT PTSUNNY   46  27  47 E13G21    30.02R
PIERRE         CLOUDY    53  21  28 E14G29    30.00R
CUSTER         CLOUDY    33  22  63 NE15      29.97R WCI  23
ELLSWORTH AFB  PTSUNNY   46  26  44 E8        30.01S
PHILIP         CLOUDY    50  25  37 NE14G23   30.01S
PINE RIDGE     CLOUDY    44  29  55 NE15      29.97R
SPEARFISH      FAIR      43  25  49 NE7G13    30.04R
WINNER         FAIR      52  27  38 NE13G22   29.97R
$$

SDZ004>011-016>023-039-040-282300-
NORTHEAST SOUTH DAKOTA

CITY           SKY/WX    TMP DP  RH WIND       PRES   REMARKS
ABERDEEN       CLOUDY    53  18  25 N18       30.04R
WATERTOWN      CLOUDY    49  22  34 N16G23    29.99R
BROOKINGS      CLOUDY    49  25  39 NE12G20   29.97R
SISSETON         N/A     54  18  24 N15G25    30.01R
$$

SDZ017-020-022-023-036>040-048>070-282300-
SOUTHEAST SOUTH DAKOTA

CITY           SKY/WX    TMP DP  RH WIND       PRES   REMARKS
SIOUX FALLS    CLOUDY    48  33  56 NE14      29.97R
HURON          MOSUNNY   55  21  26 NE18G24   29.99R
CHAMBERLAIN    PTSUNNY   54  29  38 NE13G21   29.98R
MITCHELL       CLOUDY    53  28  38 NE14G25   29.98R
YANKTON        PTSUNNY   46  28  49 NE16      29.95S
$$

ABBREVIATIONS USED IN REMARKS
   TC - TEMPERATURE IN CELSIUS
  WCI - WIND CHILL INDEX
   HX - HEAT INDEX
  VSB - VISIBILITY




USA.gov is the U.S. government's official web portal to all federal, state and local government web resources and services.